Helicity
61 117 195 126 103 152 226 288 237 230 279 272 245 250 258 272 349 382 322 349 394 455 422 451 353 383 301 207 198 177 179 161
47 74 109 178 185 185 134 212 233 259 316 386 376 361 367 323 276 332 411 346 368 469 519 576 364 356 367 277 246 238 260 221
73 63 85 163 174 198 216 199 244 298 350 371 367 421 369 379 345 292 326 394 394 454 549 484 433 418 337 275 327 298 245 230
65 98 103 158 175 181 165 165 177 215 238 317 329 295 312 310 242 268 287 325 413 466 578 569 508 430 333 304 333 393 334 278
87 81 118 133 155 157 175 182 206 215 219 274 337 414 407 312 305 333 321 282 302 416 491 536 502 490 359 308 394 347 339 318
86 97 86 99 119 188 238 220 184 221 239 246 337 353 353 308 329 328 387 300 312 358 404 480 502 518 435 362 347 360 348 344
231 247 253 217 156 185 160 178 207 192 208 210 255 270 296 327 290 312 335 342 300 323 402 487 520 490 470 410 315 290 346 318
128 196 209 218 212 217 143 129 157 184 166 216 229 195 252 262 267 320 329 351 329 357 391 423 456 443 410 439 425 304 312 309
256 219 269 236 231 263 272 156 124 105 139 177 138 168 241 223 193 226 276 294 337 386 395 405 399 422 451 400 402 336 348 338
430 452 459 418 397 388 375 348 348 364 91 132 129 146 183 155 127 204 246 259 294 324 394 397 397 393 408 415 385 345 327 306
662 715 671 627 578 582 553 574 547 508 455 376 298 188 176 196 188 199 201 242 271 326 344 363 393 388 376 366 344 324 331 315
929 866 925 969 968 944 834 790 811 762 731 643 573 576 511 453 382 345 179 206 241 293 301 306 378 352 329 292 318 348 314 293
458 656 827 941 1132 1099 1099 968 934 867 945 943 829 782 743 615 615 536 497 464 334 269 299 293 284 288 263 307 306 332 240 321
237 202 299 494 662 930 1062 1007 831 920 985 953 1071 1048 931 870 713 694 607 687 702 700 493 431 337 262 190 191 205 229 219 280
64 129 47 133 294 422 529 744 812 731 690 922 917 859 975 907 877 900 836 674 726 617 865 412 420 523 315 147 178 254 192 168
-39 -35 25 -7 37 80 179 231 378 418 526 685 853 857 845 777 717 601 775 781 677 543 576 526 345 354 308 342 327 264 196 82
-83 -94 -92 -78 -51 -61 -84 -59 -7 6 235 294 240 357 388 311 597 680 582 668 699 654 386 439 299 309 286 381 254 305 237 254
-34 -39 -36 -49 -68 -57 -73 -62 -36 -75 -55 2 6 18 30 82 273 333 399 386 495 573 473 427 474 265 196 254 215 224 204 216
-41 -58 -66 -66 -65 -57 -46 -51 -46 -43 -45 -45 -43 -31 -10 -29 4 31 107 246 223 184 368 476 184 143 211 200 239 226 198 102
Wind_Speed
86 73 63 64 62 65 59 56 56 56 58 63 64 57 57 55 60 62 64 65 58 57 57 52 47 45 39 34 30 30 31 34
89 81 73 63 62 59 64 57 56 56 59 64 66 63 57 58 59 60 64 69 66 63 63 56 53 50 46 39 34 34 42 34
97 92 83 72 67 63 62 64 64 63 61 61 69 60 60 61 61 62 64 69 72 66 64 61 56 51 48 42 38 38 45 33
102 93 87 75 73 71 61 55 57 59 60 64 68 63 69 67 66 65 67 70 74 71 65 60 57 54 51 46 40 41 51 44
104 92 82 87 80 79 73 68 64 63 64 71 71 69 68 65 61 59 60 66 70 73 69 62 60 56 53 50 44 42 49 49
101 100 96 99 92 84 77 74 74 69 70 73 74 71 65 62 64 61 63 65 67 72 70 65 63 59 56 52 48 47 47 50
62 63 65 70 74 73 73 70 72 69 64 66 70 66 62 63 63 63 60 65 69 69 69 67 61 60 57 54 51 50 48 50
50 51 52 57 64 68 72 75 75 68 61 64 65 62 63 61 58 62 59 59 64 64 64 69 65 62 60 58 54 54 52 50
36 38 39 45 50 55 59 64 71 64 58 59 59 61 62 62 58 58 57 57 58 61 63 67 70 66 64 63 61 57 55 57
26 28 29 31 32 37 40 41 44 48 59 54 56 58 59 56 58 53 54 55 57 59 61 64 68 68 65 63 63 62 58 57
27 26 25 25 22 22 19 21 26 33 37 38 49 59 57 57 59 58 53 54 54 57 61 62 66 65 64 63 64 62 62 60
28 25 28 26 23 17 13 12 11 16 20 24 26 34 42 45 51 55 58 54 54 54 56 62 63 64 63 63 62 60 62 61
36 35 30 29 25 20 17 13 11 11 11 12 15 22 28 34 38 45 49 54 58 51 52 57 58 58 53 60 63 65 62 64
35 37 38 31 27 25 22 19 15 14 13 13 14 20 25 28 29 33 35 38 43 52 51 59 58 57 59 57 59 65 66 59
36 37 42 39 32 28 29 24 22 19 18 18 21 23 28 29 28 33 30 30 34 38 51 47 51 59 59 68 53 39 61 60
43 43 37 34 32 33 30 30 27 26 22 22 24 26 30 32 30 29 31 33 36 31 38 31 31 31 44 52 43 47 50 52
43 49 46 31 33 34 29 33 29 28 25 25 29 30 32 33 35 37 37 35 39 41 44 44 31 38 42 32 35 38 39 48
53 54 50 47 39 33 37 34 33 32 29 30 31 34 34 36 37 41 42 40 38 41 42 44 42 44 38 38 37 35 41 49
51 52 50 48 46 43 38 41 35 39 39 41 41 44 46 47 43 46 45 47 48 50 49 47 45 43 45 45 46 45 47 47
Wind_Direction
279 277 271 264 262 252 244 239 232 232 239 247 249 248 245 242 241 238 234 234 227 228 232 229 225 230 232 228 222 232 233 241
275 272 270 266 260 253 245 237 231 235 239 243 245 245 244 244 242 237 234 235 234 230 231 228 226 228 230 230 234 228 241 235
273 269 268 262 257 253 247 243 239 235 237 240 245 243 244 243 243 239 233 232 233 233 232 229 227 226 226 223 221 229 243 220
270 269 263 261 256 253 247 239 239 235 236 242 247 247 250 247 243 240 234 233 233 231 233 230 225 222 220 219 217 216 236 231
267 265 261 258 258 255 251 247 244 241 241 244 240 240 242 241 239 236 233 227 231 233 233 231 227 224 222 219 224 224 235 232
263 262 261 256 258 255 255 252 249 247 245 241 241 238 239 239 242 237 233 231 231 232 233 231 230 229 226 221 219 213 225 236
274 271 266 264 261 259 256 253 252 248 241 236 236 230 231 237 240 237 233 235 235 233 232 231 227 229 231 227 226 221 220 238
286 278 272 268 263 261 259 256 254 248 240 238 234 226 230 235 234 234 232 233 234 232 230 232 233 232 234 232 228 230 228 230
299 293 287 277 271 266 265 258 251 247 243 238 231 231 235 240 237 237 236 234 232 232 230 234 236 235 235 236 240 238 236 239
318 321 313 299 288 275 269 261 252 250 243 239 235 234 235 237 239 239 240 239 242 239 232 232 235 236 237 237 241 243 241 239
347 337 340 337 320 304 287 280 258 253 252 250 244 240 238 242 244 243 243 243 243 241 235 237 234 234 237 237 240 243 243 243
6 359 359 347 345 340 333 317 303 273 265 259 255 252 245 249 249 249 249 245 243 240 236 237 234 235 235 237 241 243 242 244
24 18 7 2 360 358 358 347 353 333 309 287 281 270 261 254 262 261 260 255 255 241 236 231 233 233 227 237 241 245 243 244
20 19 19 8 8 6 1 351 350 340 327 325 305 296 286 277 274 274 271 265 265 261 246 241 231 237 242 241 246 246 241 243
21 16 20 16 16 9 8 355 350 338 338 324 311 312 301 295 289 279 279 280 278 277 267 261 266 261 254 247 246 235 244 247
16 14 4 5 9 9 4 4 356 342 337 328 320 311 306 300 295 294 287 285 280 286 284 282 267 280 255 241 254 254 250 254
3 4 359 347 350 355 349 357 352 346 337 334 327 316 309 308 306 303 294 293 289 284 281 277 278 292 274 288 285 275 271 268
357 358 351 346 344 339 344 341 334 335 333 319 317 314 312 287 309 302 295 290 289 289 284 289 295 282 294 291 291 286 282 278
345 346 343 340 337 337 327 334 321 329 331 327 320 314 305 307 305 298 299 294 287 284 288 288 277 290 295 292 291 284 285 284